This is the latest recevied weather packets stored in our database for station/object WA1TYB-13. If no packets are shown the sender has not sent any weather packets the latest 10 day(s).
| Time | Temp. | Humidity | Pressure | Rain* | Wind** | Luminosity | Snow |
|---|---|---|---|---|---|---|---|
| 1778003856 | 8.89° C | 40% | 1019.5 hPa | 0 mm | - | 486 W/m² | - |
| 1778003552 | 8.89° C | 41% | 1019.5 hPa | 0 mm | - | 278 W/m² | - |
| 1778003249 | 8.89° C | 41% | 1019.6 hPa | 0 mm | - | 608 W/m² | - |
| 1778002946 | 8.33° C | 42% | 1019.6 hPa | 0 mm | - | 474 W/m² | - |
| 1778002642 | 7.78° C | 43% | 1019.8 hPa | 0 mm | - | 224 W/m² | - |
| 1778002339 | 8.33° C | 44% | 1019.7 hPa | 0 mm | - | 192 W/m² | - |
| 1778002036 | 8.89° C | 43% | 1019.9 hPa | 0 mm | - | 695 W/m² | - |
| 1778001733 | 7.78° C | 44% | 1019.6 hPa | 0 mm | - | 849 W/m² | - |
| 1778001433 | 7.78° C | 45% | 1019.7 hPa | 0 mm | - | 185 W/m² | - |
| 1778001130 | 7.22° C | 46% | 1019.6 hPa | 0 mm | - | 161 W/m² | - |
| 1778000827 | 7.22° C | 46% | 1019.9 hPa | 0 mm | - | 138 W/m² | - |
| 1778000523 | 7.22° C | 48% | 1020 hPa | 0 mm | - | 252 W/m² | - |
| 1778000218 | 6.67° C | 48% | 1019.9 hPa | 0 mm | - | 223 W/m² | - |
| 1777999914 | 7.22° C | 47% | 1019.7 hPa | 0 mm | - | 306 W/m² | - |
| 1777999610 | 7.22° C | 49% | 1019.9 hPa | 0 mm | - | 314 W/m² | - |
| 1777999308 | 7.78° C | 49% | 1020 hPa | 0 mm | - | 380 W/m² | - |
| 1777999006 | 7.22° C | 46% | 1019.9 hPa | 0 mm | - | 339 W/m² | - |
| 1777998704 | 7.22° C | 46% | 1019.8 hPa | 0 mm | - | 349 W/m² | - |
| 1777998401 | 7.22° C | 45% | 1019.9 hPa | 0 mm | - | 538 W/m² | - |
| 1777998098 | 6.67° C | 47% | 1020.2 hPa | 0 mm | - | 337 W/m² | - |
| 1777997795 | 6.67° C | 49% | 1019.9 hPa | 0 mm | - | 350 W/m² | - |
| 1777997492 | 6.67° C | 47% | 1020.3 hPa | 0 mm | - | 360 W/m² | - |
| 1777997190 | 7.22° C | 47% | 1019.9 hPa | 0 mm | - | 329 W/m² | - |
| 1777996887 | 6.67° C | 47% | 1020 hPa | 0 mm | - | 287 W/m² | - |
| 1777996583 | 6.67° C | 48% | 1019.9 hPa | 0 mm | - | 312 W/m² | - |
* Rain latest hour (hover to see other rain measurements)
** Current wind speed in m/s (hover to see current wind gust speed)